Location: Newark
(48.4472°N, 1.4892°E)
Time: 13:42:21
(UTC+00:00)

Transit 4A - Pass Details

Date: 24 January 2021
Orbit: 866 x 978 km, 66.8° (Epoch: 01 March)

Event Time Altitude Azimuth Distance (km) Brightness Sun altitude
Rises 17:39:56 0° 171° (S) 3,659 11.1 -9.9°
Reaches altitude 10° 17:42:58 10° 158° (SSE) 2,720 10.3 -10.4°
Maximum altitude 17:47:54 24° 107° (ESE) 1,897 9.1 -11.2°
Enters shadow 17:51:34 15° 65° (ENE) 2,392 9.4 -11.8°
